Wednesday, January 17, 2018, 11:30 AM GMT
Back to Local

CYOY, Valcartier Airport

Location: , , Canada Lat: 46.9
Local Time: 11:30 AM GMT (11:30 GMT) Lon: -71.5
Time Zone: GMT Elev: 551 ft

Show me the last for .
Show Decoded

2018-01-17 11:00 METAR CYOY 171100Z AUTO 00000KT 7SM OVC012 M15/M18 A3033 RMK SLP288 =
2018-01-17 10:26 METAR CYOY 171026Z AUTO 36002KT 4SM OVC018 M16/M19 A3032 =
2018-01-17 10:22 METAR CYOY 171022Z AUTO 00000KT 2 1/2SM OVC018 M16/M19 A3032 =
2018-01-17 10:03 METAR CYOY 171003Z AUTO 00000KT 1 1/2SM -SN OVC020 M16/M19 A3032 =
2018-01-17 10:00 METAR CYOY 171000Z AUTO 00000KT 1 1/2SM -SN OVC011 M16/M20 A3032 RMK SLP286 =
2018-01-17 09:46 METAR CYOY 170946Z AUTO 02003KT 2 1/2SM -SN BKN011 M17/M20 A3032 =
2018-01-17 09:44 METAR CYOY 170944Z AUTO 01004KT 3SM -SN OVC011 M17/M20 A3033 =
2018-01-17 09:36 METAR CYOY 170936Z AUTO 36002KT 5SM OVC010 M17/M20 A3033 =
2018-01-17 09:00 METAR CYOY 170900Z AUTO 00000KT 9SM OVC015 OVC044 M17/M20 A3034 RMK SLP290 =
2018-01-17 08:00 METAR CYOY 170800Z AUTO 00000KT 9SM OVC015 M18/M22 A3034 RMK SLP291 =
2018-01-17 07:00 METAR CYOY 170700Z AUTO 01002KT 5SM OVC015 M20/M24 A3035 RMK SLP294 =
2018-01-17 06:41 METAR CYOY 170641Z AUTO 00000KT 6SM OVC013 M22/M26 A3035 =
2018-01-17 06:00 METAR CYOY 170600Z AUTO 00000KT 9SM OVC017 M24/M28 A3035 RMK SLP297 =
2018-01-17 05:00 METAR CYOY 170500Z AUTO 00000KT 9SM OVC019 OVC066 OVC093 M25/M29 A3036 RMK
                 SLP301 =
2018-01-17 04:39 METAR CYOY 170439Z AUTO 00000KT 9SM BKN021 BKN066 BKN081 BKN090 M25/M30 A3037 =
2018-01-17 04:00 METAR CYOY 170400Z AUTO 00000KT 9SM FEW010 FEW081 FEW090 M24/M28 A3037 RMK
                 SLP303 =
2018-01-17 03:38 METAR CYOY 170338Z AUTO 00000KT 9SM SCT010 M24/M28 A3037 =
2018-01-17 03:15 METAR CYOY 170315Z AUTO 00000KT 9SM OVC013 M24/M27 A3038 RMK ICG PAST HR =
2018-01-17 03:00 METAR CYOY 170300Z AUTO 00000KT 9SM OVC021 M24/M29 A3038 RMK ICG PAST HR SLP308
                 =
2018-01-17 02:43 METAR CYOY 170243Z AUTO 00000KT 9SM BKN021 BKN037 M24/M28 A3038 RMK ICG PAST HR
                 =
2018-01-17 02:32 METAR CYOY 170232Z AUTO 00000KT 9SM BKN010 BKN037 M24/M29 A3038 RMK ICG PAST HR
                 =
2018-01-17 02:24 METAR CYOY 170224Z AUTO 00000KT 9SM FEW010 SCT037 SCT044 M24/M28 A3038 RMK ICG
                 PAST HR =
2018-01-17 02:00 METAR CYOY 170200Z AUTO 00000KT 9SM OVC014 OVC056 M23/M27 A3038 RMK ICG SLP308 =
2018-01-17 01:05 METAR CYOY 170105Z AUTO 00000KT 9SM OVC014 OVC060 M22/M26 A3039 =
2018-01-17 01:01 METAR CYOY 170101Z AUTO 00000KT 9SM OVC019 OVC060 M23/M27 A3040 =
2018-01-17 01:00 METAR CYOY 170100Z AUTO 00000KT 9SM OVC028 OVC060 M23/M27 A3040 RMK SLP313 =
2018-01-17 00:47 METAR CYOY 170047Z AUTO 00000KT 9SM BKN028 OVC047 M22/M25 A3040 =
2018-01-17 00:38 METAR CYOY 170038Z AUTO 00000KT 9SM BKN018 OVC038 OVC056 M21/M25 A3040 =
2018-01-17 00:20 METAR CYOY 170020Z AUTO 00000KT 2 1/4SM OVC016 M22/M25 A3040 RMK VSBY VRBL
                 0.9V9.+ =
2018-01-17 00:00 METAR CYOY 170000Z 00000KT 15SM FEW070 M21/M25 A3039 RMK AC1 DA-4443FT LAST STFD
                 OBS/NEXT 171400 UTC SLP312 =
2018-01-16 23:00 METAR CYOY 162300Z 00000KT 15SM FEW085 M19/M22 A3040 RMK AC1 DA-4160FT SLP313 =
2018-01-16 22:00 METAR CYOY 162200Z 00000KT 15SM FEW030 FEW060 M16/M19 A3039 RMK SC1SC2 DA-3747FT
                 SLP309 =
2018-01-16 21:15 METAR CYOY 162115Z 18002KT 15SM FEW030 FEW060 M13/M16 A3039 RMK SC1SC2 DA-3349FT
                 SLP307 =
2018-01-16 21:00 METAR CYOY 162100Z 18002KT 12SM -SN FEW030 FEW060 M12/M16 A3038 RMK SC1SC2
                 DA-3243FT SLP304 =
2018-01-16 20:00 METAR CYOY 162000Z 00000KT 6SM -SN FEW030 FEW058 M12/M15 A3038 RMK SC1SC2
                 DA-3189FT SLP305 =
2018-01-16 19:00 METAR CYOY 161900Z 16003KT 110V200 4SM -SN OVC032 M12/M15 A3039 RMK SC8
                 DA-3187FT SUN DIMLY VISBL SLP306 =
2018-01-16 18:00 METAR CYOY 161800Z 14003KT 3SM -SN OVC027 M12/M15 A3039 RMK SN6SC2 DA-3201FT
                 SLP307 =
2018-01-16 17:48 METAR CYOY 161748Z 16005KT 2 1/2SM -SN OVC025 M12/M16 A3039 RMK SN6SC2 DA-3228FT
                 SLP307 =
2018-01-16 17:34 METAR CYOY 161734Z 15004KT 4SM -SN OVC027 M12/M16 A3040 RMK SN5SC3 DA-3213FT
                 SLP310 =
2018-01-16 17:00 METAR CYOY 161700Z 14003KT 10SM -SHSN FEW015 SCT034 BKN064 M12/M17 A3041 RMK
                 SF1SC3SC4 DA-3226FT SF TR SLP313 =
2018-01-16 16:00 METAR CYOY 161600Z 02003KT 5SM -SHSN FEW015 FEW035 BKN090 M13/M17 A3043 RMK
                 SF1SC1AC6 DA-3411FT SLP322 =
2018-01-16 15:41 METAR CYOY 161541Z 36002KT 4SM -SHSN FEW014 BKN035 OVC090 M13/M17 A3045 RMK
                 SF2SC3AC2 DA-3502FT SLP329 =
2018-01-16 15:00 METAR CYOY 161500Z 02006KT 8SM -SHSN SCT035 BKN070 M14/M18 A3045 RMK SC3AC4
                 DA-3625FT SLP330 =
2018-01-16 14:14 METAR CYOY 161414Z 04003KT 6SM -SHSN OVC040 M15/M19 A3047 RMK SC8 DA-3731FT
                 SLP336 =
2018-01-16 14:00 METAR CYOY 161400Z 02006KT 8SM SCT040 BKN068 M16/M20 A3047 RMK SC3AC4 DA-3882FT
                 FST STFD OBS SLP336 =
2018-01-16 13:00 METAR CYOY 161300Z AUTO 05002KT 9SM FEW017 FEW051 OVC056 M16/M20 A3046 RMK
                 SLP334 =
2018-01-16 12:58 METAR CYOY 161258Z AUTO 04003KT 010V120 9SM FEW017 FEW051 SCT056 OVC067 M16/M20
                 A3047 =
2018-01-16 12:41 METAR CYOY 161241Z AUTO 04003KT 9SM BKN017 BKN056 OVC072 M16/M21 A3047 =
2018-01-16 12:00 METAR CYOY 161200Z AUTO 05003KT 9SM OVC078 M16/M20 A3047 RMK SLP337 =

Support USWX by starting your Amazon purchase here.